Flag for Qatar Weather past 2 weeks in Al Khor, Qatar

Now
107 °F

Sunny.


Feels Like: 108 °F
Forecast: 85 / 104 °F
Wind: 12 mph from East

Location: Al Udeid

Current Time: May 23, 2015 at 6:49:52 PM

Latest Report: May 23, 2015 at 5:58 PM


Visibility: N/A

Pressure: 29.61 "Hg

Humidity: 21%

Dew point: 59 °F

Location of Al KhorLocation

Historic Weather in Al Khor — Graph

°F

Al Khor temperature yesterday

Maximum temperature yesterday: 111 °F (at 1:58 PM)
Minimum temperature yesterday: 82 °F (at 4:58 AM)
Average temperature yesterday: 97 °F

Past Weeks' High & Low Weather Summary

 TemperatureHumidityPressure
High114 °F (May 23, 2:58 PM)75% (May 17, 9:58 AM)29.84 "Hg (May 17, 9:58 AM)
Low38 °F (May 17, 9:58 AM)6% (May 10, 2:58 PM)29.60 "Hg (May 23, 4:58 PM)
Average94 °F26%29.73 "Hg
* Reported May 8 5:58 PM — May 23 5:58 PM, Al Khor, Weather by CustomWeather, © 2015

Note: Actual official high and low records may vary slightly from our data, if they occured in-between our weather recording intervals... More about our weather records

Advertising

Al Khor weather history for previous 24 hours

 ConditionsComfort  
Time TempWeatherWind HumidityBarometerVisibility
5:58 PM
Sat, May 23
107 °FSunny.12 mph21%29.61 "HgN/A
4:58 PM112 °FSunny.12 mph10%29.60 "HgN/A
3:58 PM113 °FSunny.1 mph8%29.61 "HgN/A
2:58 PM114 °FSunny.6 mph7%29.62 "HgN/A
1:58 PM113 °FSunny.3 mph7%29.64 "HgN/A
12:58 PM111 °FSunny.8 mph7%29.66 "HgN/A
11:58 AM109 °FClear.12 mph8%29.69 "HgN/A
10:58 AM106 °FPassing clouds.8 mph10%29.70 "HgN/A
9:58 AM103 °FClear.8 mph14%29.71 "HgN/A
8:58 AM101 °FClear.12 mph18%29.73 "HgN/A
7:58 AM97 °FClear.12 mph22%29.71 "HgN/A
6:58 AM88 °FClear.6 mph50%29.70 "HgN/A
5:58 AM85 °FClear.6 mph58%29.68 "HgN/A
4:58 AM84 °FClear.6 mph58%29.67 "HgN/A
3:58 AM84 °FClear.3 mph56%29.65 "HgN/A
2:58 AM85 °FClear.5 mph50%29.65 "HgN/A
1:58 AM87 °FSunny.6 mph41%29.64 "HgN/A
12:58 AM86 °FSunny.5 mph45%29.64 "HgN/A
11:58 PM
Fri, May 22
89 °FSunny.6 mph43%29.65 "HgN/A
10:58 PM89 °FSunny.8 mph45%29.67 "HgN/A
9:58 PM90 °FSunny.6 mph47%29.68 "HgN/A
8:58 PM92 °FSunny.8 mph43%29.68 "HgN/A
7:58 PM95 °FSunny.8 mph29%29.66 "HgN/A
6:58 PM100 °FSunny.9 mph19%29.65 "HgN/A
Weather by CustomWeather, © 2015

See weather overviewHow to use our weather pages